Location: Allonne
(49.4086°N, 2.1143°E)
Time: 15:57:15
(UTC+00:00)

DMSP B5D2-2 - Pass Details

Date: 06 August 2024
Orbit: 787 x 802 km, 98.3° (Epoch: 09 September)

Event Time Altitude Azimuth Distance (km) Brightness Sun altitude
Rises 03:17:16 0° 161° (SSE) 3,277 7.0 -10.6°
Reaches altitude 10° 03:19:35 10° 161° (SSE) 2,350 6.3 -10.4°
Maximum altitude 03:24:47 84° 74° (ENE) 801 4.2 -9.7°
Drops below altitude 10° 03:30:00 10° 347° (NNW) 2,362 6.9 -9.1°
Sets 03:32:20 0° 347° (NNW) 3,294 7.6 -8.8°
